Location: Antioch Baptist Church
(32.6696°N, 85.7327°W)
Time: 21:05:16
(UTC+00:00)

BREEZE-M R/B - Pass Details

Date: 14 July 2020
Orbit: 311 x 4532 km, 49.7° (Epoch: 13 August)

Event Time Altitude Azimuth Distance (km) Brightness Sun altitude
Rises 02:19:07 0° 309° (NW) 6,608 10.2 -16.2°
Reaches altitude 10° 02:24:32 10° 312° (NW) 4,860 8.9 -17.0°
Maximum altitude 02:36:09 74° 37° (NE) 1,190 4.4 -18.8°
Enters shadow 02:38:59 32° 116° (ESE) 1,490 4.4 -19.3°
